Regional Weather Roundup
Issued by NWS

Home | Current Version | Previous Version | Graphics & Text | Print | Product List | Glossary Off
Versions: 1 2 3 4 5 6 7 8 9 10 11 12 13 14 15 16 17 18 19 20 21 22 23 24 25 26 27 28 29 30 31 32 33 34 35 36 37 38 39 40 41 42 43 44 45 46 47 48 49 50

000
ASUS43 KDMX 161706
RWRIA

WEATHER ROUNDUP FOR IOWA
NATIONAL WEATHER SERVICE DES MOINES IA
1200 PM CDT WED AUG 16 2017

NOTE: "FAIR" INDICATES FEW OR NO CLOUDS BELOW 12,000 FEET WITH NO
SIGNIFICANT WEATHER AND/OR OBSTRUCTIONS TO VISIBILITY.

* - THESE STATIONS ARE NOT NWS STATIONS...THUS NOT UNDER NWS
QUALITY CONTROL.  THEY ALSO DO NOT REPORT WEATHER SUCH
AS PRECIPITATION OR FOG.

IAZ001>003-012>014-020>022-031>034-043>046-161800-
   NORTHWEST IOWA

CITY           SKY/WX    TMP DP  RH WIND       PRES   REMARKS
CARROLL *      RAIN      73  73 100 SE18G25   29.79R
CHEROKEE *     DRIZZLE   69  69 100 E8        29.76F
DENISON *      CLOUDY    73  72  94 SE15G22   29.76F
LE MARS *      DRIZZLE   70  70 100 NE12      29.74F
ORANGE CITY *  LGT RAIN  70  70 100 E13G20    29.75F
SHELDON *      CLOUDY    68  68 100 E8        29.77F
SIOUX CITY     LGT RAIN  72  71  97 SE7       29.74R
SPENCER        RAIN      68  67  96 E9        29.80F FOG
$$

IAZ055>058-069>071-079>083-090>094-161800-
   SOUTHWEST IOWA

CITY           SKY/WX    TMP DP  RH WIND       PRES   REMARKS
ATLANTIC *     CLOUDY    75  72  88 SE13G23   29.76R
AUDUBON *      LGT RAIN  72  68  88 S8G21     29.78F
CLARINDA *     CLOUDY    73  72  94 S8G15     29.81R
COUNCIL BLFS * CLOUDY    77  73  88 SW14      29.78R
CRESTON *      CLOUDY    72  72 100 SE13G18   29.82F
HARLAN  *      CLOUDY    73  72  94 SE13G18   29.79R
LAMONI         RAIN      74  70  87 SE8       29.83F FOG
RED OAK *      CLOUDY    75  72  88 SE18      29.77R
SHENANDOAH *   CLOUDY    77  72  83 SE15      29.78S
$$

IAZ047>049-059>061-072>074-084-161800-
   CENTRAL IOWA

CITY           SKY/WX    TMP DP  RH WIND       PRES   REMARKS
AMES           CLOUDY    78  74  87 SE15G22   29.82F HX  81
ANKENY *       CLOUDY    79  72  78 S17G23    29.82S HX  82
BOONE *        CLOUDY    77  72  83 SE10G18   29.82R
CHARITON *     CLOUDY    77  72  83 S12       29.85S
DES MOINES     CLOUDY    79  71  76 S14       29.82S THUNDER HX  82
GRINNELL*      CLOUDY    79  72  78 SE16      29.86F HX  82
KNOXVILLE *    CLOUDY    77  72  83 S12G20    29.84R
MARSHALLTOWN   PTSUNNY   80  73  79 SE17G23   29.84F HX  84
NEWTON *       CLOUDY    77  73  88 SE13G21   29.84S
PELLA *        CLOUDY    77  72  82 S12G17    29.86R
PERRY *        LGT RAIN  75  73  95 S7        29.82R
$$

IAZ004>006-015-016-023>025-035-036-161800-
   NORTH CENTRAL IOWA

CITY           SKY/WX    TMP DP  RH WIND       PRES   REMARKS
ALGONA *       CLOUDY    75  72  88 E14G20    29.81F
CLARION *      CLOUDY    77  75  94 E13G18    29.83F
ESTHERVILLE    CLOUDY    68  68 100 E9        29.82F FOG
FORT DODGE *   CLOUDY    77  70  78 SE14      29.80F
MASON CITY     CLOUDY    72  69  90 SE12      29.88S FOG
FOREST CITY *  CLOUDY    72  68  88 SE12      29.86F FOG
WEBSTER CITY * CLOUDY    77  72  83 SE15      29.79F
IOWA FALLS *   CLOUDY    78  72  81 SE13      29.86F HX  81
$$

IAZ007>011-017>019-026>030-037>042-050>054-066-161800-
   NORTHEAST IOWA

CITY           SKY/WX    TMP DP  RH WIND       PRES   REMARKS
CEDAR RAPIDS   PTSUNNY   80  71  74 S13       29.88S HX  84
CHARLES CITY * MOSUNNY   79  73  83 SE8G16    29.88S HX  82
CLINTON *      SUNNY     82  73  74 SE13G18   29.93F HX  87
DECORAH *      CLOUDY    75  68  78 E12       29.89F
DUBUQUE        SUNNY     78  70  76 SE9       29.93F HX  80
MONTICELLO *   SUNNY     81  72  74 SE10G18   29.90F HX  84
OELWEIN *      CLOUDY    79  73  83 SE14G21   29.89F HX  82
WATERLOO       CLOUDY    80  69  69 SE14      29.85F HX  83
$$

IAZ064-065-067-068-078-161800-
   EAST CENTRAL IOWA

CITY           SKY/WX    TMP DP  RH WIND       PRES   REMARKS
DAVENPORT      MOSUNNY   82  71  69 SE12      29.92F HX  86
IOWA CITY      PTSUNNY   83  72  69 SE12      29.88F HX  88
MT. PLEASANT * CLOUDY    81  72  73 SE13G21   29.88F HX  85
MUSCATINE *    CLOUDY    82  72  69 SE14G20   29.88F HX  87
QUAD CITIES    CLOUDY    82  71  69 SE12      29.89F HX  86
$$

IAZ062-063-075>077-085>089-095>099-161800-
   SOUTHEAST IOWA

CITY           SKY/WX    TMP DP  RH WIND       PRES   REMARKS
BURLINGTON     CLOUDY    78  73  84 S10       29.90F HX  81
FAIRFIELD *    CLOUDY    81  72  74 SE15G22   29.85F HX  84
FORT MADISON * CLOUDY    75  73  94 S8        29.91S
KEOKUK *       CLOUDY    77  73  88 S9        29.89F
OSKALOOSA *    CLOUDY    79  72  79 SE13      29.86R HX  82
CENTERVILLE *  PTSUNNY   75  73  94 S6        29.89F
OTTUMWA        CLOUDY    79  73  82 SE14      29.86S HX  82
WASHINGTON *   PTSUNNY   82  73  74 SE13G22   29.88F HX  88
$$

ABBREVIATIONS USED IN REMARKS
   TC - TEMPERATURES IN CELSIUS
  WCI - WIND CHILL INDEX
   HX - HEAT INDEX
  VSB - VISIBILITY
$$




USA.gov is the U.S. government's official web portal to all federal, state and local government web resources and services.